Home   Weather   Sedona   Past weeks

Flag for USA Past Weather in Sedona, Arizona, USA — Yesterday and Last 2 Weeks

Now
79 °F

Scattered clouds.


Feels Like: 79 °F
Forecast: 59 / 78 °F
Wind: 13 mph from Southeast

Location: Sedona Airport

Current Time: Sep 30, 2016 at 3:09:56 PM

Latest Report: Sep 30, 2016 at 2:35 PM


Visibility: 10 mi

Pressure: 30.19 "Hg (26.08 "Hg at 1282m altitude)

Humidity: 32%

Dew Point: 46 °F

Location of SedonaLocation

Past Weather in Sedona — Graph

°F

Sedona Temperature Yesterday

Maximum temperature yesterday: 72 °F (at 4:35 PM)
Minimum temperature yesterday: 61 °F (at 8:15 AM)
Average temperature yesterday: 65 °F

High & Low Weather Summary for the Past Weeks

 TemperatureHumidityPressure
High91 °F (Sep 18, 1:55 PM)94% (Sep 20, 1:15 PM)30.37 "Hg (Sep 20, 1:15 PM)
Low50 °F (Sep 24, 5:55 AM)8% (Sep 16, 1:15 PM)29.88 "Hg (Sep 23, 12:55 AM)
Average68 °F40%30.17 "Hg
* Reported Sep 15 1:15 PM — Sep 30 1:55 PM, Sedona, Weather by CustomWeather, © 2016

Note: Actual official high and low records may vary slightly from our data, if they occured in-between our weather recording intervals... More about our weather records

Advertising

Sedona Weather History for the Previous 24 Hours

Scroll right to see more
 ConditionsComfort  
Time TempWeatherWind HumidityBarometerVisibility
1:55 PM
Fri, Sep 30
82 °FSunny.7 mph28%30.21 "Hg10 mi
1:35 PM81 °FSunny.6 mph30%30.21 "Hg10 mi
1:15 PM81 °FSunny.No wind30%30.23 "Hg10 mi
12:55 PM79 °FScattered clouds.5 mph32%30.24 "Hg10 mi
12:35 PM79 °FSunny.No wind34%30.25 "Hg10 mi
12:15 PM77 °FThundershowers. Sunny.8 mph39%30.25 "Hg10 mi
11:55 AM79 °FSunny.5 mph39%30.26 "Hg10 mi
11:35 AM77 °FSunny.3 mph42%30.27 "Hg10 mi
11:15 AM77 °FSunny.8 mph42%30.28 "Hg10 mi
10:55 AM75 °FSunny.5 mph44%30.29 "Hg10 mi
10:35 AM72 °FSunny.No wind50%30.30 "Hg10 mi
10:15 AM72 °FSunny.3 mph50%30.30 "Hg10 mi
9:55 AM70 °FSunny.3 mph53%30.30 "Hg10 mi
9:35 AM72 °FSunny.3 mph50%30.30 "Hg10 mi
9:15 AM70 °FSunny.5 mph53%30.30 "Hg10 mi
8:55 AM68 °FSunny.3 mph56%30.30 "Hg10 mi
8:15 AM64 °FSunny.3 mph60%30.30 "Hg10 mi
7:55 AM63 °FSunny.7 mph64%30.30 "Hg10 mi
7:35 AM61 °FSunny.9 mph68%30.29 "Hg10 mi
7:15 AM61 °FSunny.9 mph68%30.29 "Hg10 mi
6:55 AM59 °FSunny.9 mph72%30.29 "Hg10 mi
6:35 AM59 °FSunny.10 mph72%30.28 "Hg10 mi
6:15 AM59 °FClear.9 mph72%30.27 "Hg10 mi
5:55 AM59 °FClear.10 mph72%30.27 "Hg10 mi
5:35 AM59 °FClear.9 mph72%30.27 "Hg10 mi
5:15 AM59 °FClear.8 mph72%30.26 "Hg10 mi
4:55 AM61 °FClear.9 mph68%30.26 "Hg10 mi
4:35 AM61 °FClear.9 mph68%30.26 "Hg10 mi
4:15 AM61 °FClear.9 mph68%30.26 "Hg10 mi
3:55 AM61 °FClear.9 mph68%30.26 "Hg10 mi
3:35 AM61 °FClear.10 mph68%30.26 "Hg10 mi
3:15 AM61 °FClear.8 mph68%30.26 "Hg10 mi
2:55 AM61 °FClear.10 mph68%30.26 "Hg10 mi
2:15 AM63 °FThundershowers. Clear.7 mph68%30.28 "Hg10 mi
1:55 AM63 °FClear.9 mph68%30.28 "Hg10 mi
1:15 AM63 °FClear.12 mph68%30.28 "Hg10 mi
12:55 AM63 °FClear.10 mph68%30.28 "Hg10 mi
12:15 AM61 °FClear.12 mph72%30.28 "Hg10 mi
11:55 PM
Thu, Sep 29
61 °FClear.13 mph72%30.28 "Hg10 mi
11:35 PM61 °FClear.14 mph72%30.29 "Hg10 mi
11:15 PM63 °FClear.14 mph68%30.29 "Hg10 mi
10:55 PM63 °FClear.12 mph68%30.29 "Hg10 mi
10:35 PM63 °FClear.14 mph68%30.29 "Hg10 mi
10:15 PM63 °FClear.13 mph68%30.29 "Hg10 mi
9:55 PM64 °FClear.13 mph64%30.29 "Hg10 mi
9:15 PM64 °FClear.9 mph64%30.29 "Hg10 mi
8:55 PM64 °FClear.9 mph64%30.29 "Hg10 mi
8:35 PM64 °FClear.13 mph64%30.29 "Hg10 mi
8:15 PM64 °FClear.10 mph64%30.28 "Hg10 mi
7:55 PM64 °FClear.10 mph64%30.27 "Hg10 mi
7:35 PM64 °FClear.10 mph64%30.26 "Hg10 mi
7:15 PM64 °FClear.7 mph68%30.26 "Hg10 mi
6:55 PM66 °FClear.7 mph60%30.25 "Hg10 mi
6:35 PM68 °FClear.6 mph53%30.25 "Hg10 mi
6:15 PM68 °FClear.6 mph56%30.25 "Hg10 mi
5:55 PM70 °FSunny.3 mph57%30.25 "Hg10 mi
5:35 PM70 °FSunny.5 mph57%30.26 "Hg10 mi
5:15 PM70 °FThundershowers. Sunny.6 mph57%30.26 "Hg10 mi
4:55 PM72 °FSunny.No wind57%30.26 "Hg10 mi
4:35 PM72 °FScattered clouds.No wind57%30.27 "Hg10 mi
4:15 PM70 °FPartly sunny.No wind57%30.27 "Hg10 mi
3:55 PM70 °FPartly sunny.No wind57%30.27 "Hg10 mi
3:35 PM70 °FPartly sunny.No wind57%30.28 "Hg10 mi
3:15 PM70 °FPartly sunny.No wind60%30.29 "Hg10 mi
Weather by CustomWeather, © 2016

See weather overviewHow to use our weather pages